COSMOS 1691 DEB, 43314

Orbit data source: Space-Track

COSMOS 1691 DEB, 43314 is space debris in LEO originally from a launch on Wed, 09 Oct 1985 UTC launched from the Plesetsk Missile And Space Complex (PKMTR). Debris objects in space refer to the collection of defunct objects orbiting the Earth. Examples of debris include non-operational satellites, rocket bodies, and fragments generated from explosions, collisions, or faulty payload assembly.

Loading next visibility...
Identifier
43314, 1985-094Y
Orbit
LEO
Country
Flag of CISCIS
Related business
Manufacturer
Unknown
Mission
Spacecraft
Bus & Motor
Unknown
Mass
Unknown
Launch date (UTC)
1985-10-09 (41 years ago)
Launch vehicle
Unknown
Launch site
Plesetsk Missile And Space Complex (PKMTR)
Object type
Payload
Rocket body
Debris
Shape & HBR
Unknown shape, 0.1 m
Radar Cross Section
Small (<0.1 m²)

Expand to show TLE details & history
Last TLE update: 3 days ago

TLE from 3 days ago
0 COSMOS 1691 DEB
1 43314U 85094Y   26124.52692272  .00000507  00000-0  22003-2 0  9992
2 43314  82.5544  63.2237 0046842 347.3252  12.6667 12.79026475580237
Epoch: 2026-05-04T12:38Z
TLE epoch observation values (Epoch: 2026-05-04T12:38:46.123Z)
Latitude
-0.00001°
Longitude
11.11667°
Altitude
1,312.844 km
Speed
7.217 km/s
True Right ascension
04h 12m 53s
True Declination
0° 00' 00"
Sunlit
Object was in daylight at epoch
Visualization orbit readout
Latitude
Unknown
Longitude
Unknown
Altitude
Unknown
Speed
Unknown
Apparent Right ascension
Unknown
Apparent Declination
Unknown
Sunlit
N/A
Visualization observer readout
Local Sidereal Time
19:52:00
Azimuth
Unknown
Elevation
Unknown
Doppler factor
Unknown
Orbital elements
Apogee altitude
1,378.85 km
Perigee altitude
1,306.519 km
Semi-major axis
7,720.822 km
Eccentricity
0.00468
Inclination
82.5544°
RAAN
63.2237°
Arg. of periapsis
347.3252°
True anomaly
12.78508°
Mean anomaly
12.6667°
Eccentric anomaly
12.72582°
Mean motion
3.19925 °/min
Orbital period
112.53 mins
BSTAR
0.0022003
Loading maneuver chart data...
Computing Atmospheric mass density...
Loading historical data...
Loading historical data...
Loading historical data...
Loading historical data...
Loading historical data...
Loading historical data...
Loading historical data...

Documentation

Showing up to 5 results
|